Weather in Palmas

Brazil     10°10′09″S   48°19′55″W
temp.,
°C
wind,
m/s
gust,
m/s
humid.,
%
clouds,
%
prec.,
mm/h
press.,
hPa
HPBL,
m
17 september, fri
fri1700:00+28ene11265 0.0 101211
03:00+26ese223010 0.0 101219
06:00+26e413265 0.0 1013427
09:00+32ene610221 0.0 10141017
12:00+37ne33170 0.0 10133343
15:00+39e12130 0.0 10083832
18:00+34se221828 0.0 100919
21:00+31e222273 0.0 101133
18 september, sat
sat1800:00+28e22251 0.0 101115
03:00+26ene342844 0.0 100984
06:00+26e242720 0.0 1011157
09:00+33ene68190 0.0 10131182
12:00+37ne43150 0.0 10113219
15:00+40ne22123 0.0 10074012
18:00+34ne111835 0.0 100711
21:00+31ene222142 0.0 100921
19 september, sun
sun1900:00+29ne11242 0.0 100911
03:00+28e222581 0.0 100820
06:00+28e242535 0.0 101092
09:00+34ne58185 0.0 10121463
12:00+38ne44155 0.0 10093940
15:00+40e33122 0.0 10064103
18:00+35ene22174 0.0 100630
21:00+31ene32200 0.0 100837
20 september, mon
mon2000:00+30e222013 0.0 100811
03:00+28ne12245 0.0 100713
06:00+26e37285 0.0 1009142
09:00+35ene610165 0.0 1011997
12:00+39ne4312100 0.0 10093286
15:00+42ene131010 0.0 10054284
18:00+35nne221418 0.0 100511
21:00+32ne22181 0.0 100714
21 september, tue
tue2100:00+30ene22195 0.0 100718
03:00+28ene382156 0.0 1007155
06:00+27e3122332 0.0 1009364
09:00+34ne610205 0.0 10121242
12:00+39ene441441 0.0 10103100
15:00+41ese331161 0.0 10064447
18:00+35ese34145 0.0 100667
21:00+31ene21185 0.0 100811